Location: *
(43.0833°N, 13.0500°E)
Time: 04:37:59
(UTC+00:00)

Cosmos 2297 Rocket - Pass Details

Date: 15 November 2019
Orbit: 839 x 843 km, 71.0° (Epoch: 07 December)

Event Time Altitude Azimuth Distance (km) Brightness Sun altitude
Rises 16:55:29 0° 335° (NNW) 3,406 5.5 -13.1°
Reaches altitude 10° 16:57:56 10° 335° (NNW) 2,468 4.8 -13.5°
Maximum altitude 17:03:37 89° 245° (WSW) 849 2.2 -14.5°
Drops below altitude 10° 17:09:16 10° 158° (SSE) 2,454 4.5 -15.5°
Sets 17:11:42 0° 158° (SSE) 3,385 5.2 -16.0°
